Hourly Data Report for September 04, 2017

All times are specified in Local Standard Time (LST). Add 1 hour to adjust for Daylight Saving Time where and when it is observed.

KUGAARUK CLIMATE
NUNAVUT

68°32'15.060" N
89°47'47.020" W
15.80 m
2303094
71407
NBB

Download Data

Hourly Data (September 2017)
Hourly Data Report for September 4, 2017
Temp Definition
°C
Dew Point Temp Definition
°C
Rel Hum Definition
%
Wind Dir Definition
10's deg

Wind Spd Definition
km/h
Visibility Definition
km
Stn Press Definition
kPa
Hmdx Definition


Wind Chill Definition


Weather Definition


TIME
00:00 -1.2 -2.9 88 26 3   101.41   -2 LegendNANA
01:00 -1.0 -2.7 88 30 3   101.45   -2 LegendNANA
02:00 -1.1 -2.7 89 9 6   101.46   -3 LegendNANA
03:00 -1.7 -2.9 91 26 2   101.49   -2 LegendNANA
04:00 -0.8 -2.4 89 25 2   101.51   -1 LegendNANA
05:00 -0.2 -2.5 85 29 2   101.54   -1 LegendNANA
06:00 0.5 -1.3 88 36 11   101.57     LegendNANA
07:00 0.7 -0.5 92 33 7   101.57     LegendNANA
08:00 1.0 -0.6 89 33 14   101.57     LegendNANA
09:00 1.7 -0.6 85 31 8   101.58     LegendNANA
10:00 1.6 -0.4 87 26 12   101.57     LegendNANA
11:00 2.0 0.9 92 25 14   101.58     LegendNANA
12:00 2.4 0.0 84 28 14   101.61     LegendNANA
13:00 2.9 0.1 82 28 12   101.59     LegendNANA
14:00 3.0 0.1 81 28 9   101.60     LegendNANA
15:00 3.3 0.4 82 28 12   101.61     LegendNANA
16:00 3.6 0.0 77 35 11   101.60     LegendNANA
17:00 3.4 0.1 79 2 11   101.57     LegendNANA
18:00 3.2 0.0 79 13 3   101.56     LegendNANA
19:00 2.9 0.1 82 0 1   101.54     LegendNANA
20:00 3.0 0.5 83 23 2   101.52     LegendNANA
21:00 2.6 0.3 85 14 2   101.48     LegendNANA
22:00 2.4 0.4 87 5 5   101.46     LegendNANA
23:00 1.9 0.6 91 36 10   101.47     LegendNANA

Notes on Data Quality.

Legend

  • E = Estimated
  • M = Missing
  • NA = Not Available
  • ‡ = Partner data that is not subject to review by the National Climate Archives
Date modified: